Location: �clusier
(49.9361°N, 2.7869°E)
Time: 08:03:11
(UTC+00:00)

Terra - Pass Details

Date: 16 June 2021
Orbit: 701 x 703 km, 98.2° (Epoch: 01 August)

Event Time Altitude Azimuth Distance (km) Brightness Sun altitude
Exits shadow 22:44:45 10° 217° (SW) 2,182 4.0 -15.3°
Reaches altitude 10° 22:44:47 10° 217° (SW) 2,169 4.0 -15.3°
Maximum altitude 22:48:29 22° 268° (W) 1,507 3.7 -15.4°
Drops below altitude 10° 22:52:13 10° 320° (NW) 2,182 5.4 -15.6°
Sets 22:54:57 0° 335° (NNW) 3,106 6.8 -15.7°
